This demonstration page uses our WeatherBlox Daily Observations layout. Learn more.

Left ArrowRight Arrow

39.92423, -83.80882

Hourly Observations for January 1, 2020

Temp ( °F °C ) Dew Point ( °F °C ) Humidity (%) Winds ( mph kmh ) Pressure ( in mb ) Visibility ( mi km ) Precip ( " mm )
12:56 am 00:56 Cloudy 32 0 26 -3.3 79 79 W 15 24 29.88 1012 10 16.0934 0 0
1:56 am 01:56 Cloudy 32 0 26 -3.3 79 79 W 16 26 29.88 1012 10 16.0934 0 0
2:56 am 02:56 Cloudy 32 0 25 -3.9 75 75 W 17 28 29.89 1012 10 16.0934 0 0
3:56 am 03:56 Cloudy 32 0 26 -3.3 79 79 W 15 24 29.9 1013 10 16.0934 0 0
4:56 am 04:56 Cloudy 32 0 27 -2.8 82 82 W 13 20 29.9 1012 10 16.0934 0 0
5:56 am 05:56 Cloudy 32 0 27 -2.8 82 82 WSW 13 20 29.9 1013 10 16.0934 0 0
6:56 am 06:56 Cloudy 33 0.6 27 -2.8 78 78 WSW 13 20 29.9 1013 10 16.0934 0 0
7:56 am 07:56 Cloudy 33 0.6 27 -2.8 78 78 WSW 14 22 29.92 1013 10 16.0934 0 0
8:56 am 08:56 Cloudy 33 0.6 28 -2.2 82 82 WSW 13 20 29.93 1014 10 16.0934 0 0
9:56 am 09:56 Cloudy 34 1.1 29 -1.7 82 82 WSW 16 26 29.95 1014 10 16.0934 0 0
10:56 am 10:56 Cloudy 36 2.2 29 -1.7 76 76 WSW 16 26 29.96 1014 10 16.0934 0 0
11:34 am 11:34 Partly Cloudy 37 3 30 -1 75 75 WSW 14 22 29.95 1014 10 16.0934 0 0
11:56 am 11:56 Mostly Sunny 39 3.9 31 -0.6 73 73 WSW 13 20 29.92 1013 10 16.0934 0 0
12:56 pm 12:56 Mostly Sunny 40 4.4 32 0 73 73 SW 16 26 29.91 1013 10 16.0934 0 0
1:56 pm 13:56 Sunny 42 5.6 32 0 68 68 SW 16 26 29.89 1012 10 16.0934 0 0
2:56 pm 14:56 Sunny 43 6.1 32 0 65 65 SW 14 22 29.88 1012 10 16.0934 0 0
3:56 pm 15:56 Sunny 43 6.1 31 -0.6 63 63 SW 12 19 29.88 1012 10 16.0934 0 0
4:56 pm 16:56 Sunny 42 5.6 31 -0.6 65 65 SSW 12 19 29.88 1012 10 16.0934 0 0
5:56 pm 17:56 Clear 40 4.4 30 -1.1 68 68 SSW 6 9 29.88 1012 10 16.0934 0 0
6:56 pm 18:56 Clear 38 3.3 30 -1.1 73 73 S 8 13 29.87 1011 10 16.0934 0 0
7:56 pm 19:56 Clear 38 3.3 29 -1.7 70 70 SSW 7 11 29.87 1011 10 16.0934 0 0
8:56 pm 20:56 Clear 39 3.9 27 -2.8 62 62 SSW 9 15 29.87 1011 10 16.0934 0 0
9:56 pm 21:56 Clear 37 2.8 27 -2.8 67 67 S 8 13 29.85 1011 10 16.0934 0 0
10:56 pm 22:56 Clear 37 2.8 26 -3.3 65 65 SSW 8 13 29.86 1011 10 16.0934 0 0
11:56 pm 23:56 Clear 37 2.8 25 -3.9 62 62 SSW 13 20 29.85 1011 10 16.0934 0 0

Powered by AerisWeather